KD5NDU-1 Weather Reports


time (UTC)temp
C
wind
direction
speed
KPH
gust
KPH
rain 1hr
cm
rain 24hr
cm
rain mn
cm
humidity
%
barometer
mb
20260510193016 25 91 4.8 17.7 0.00 0.00 0.00 70 1017.1
20260510192507 25 67 3.2 17.7 0.00 0.00 0.00 68 1017.1
20260510192007 26 80 6.4 16.1 0.00 0.00 0.00 65 1017.1
20260510191514 26 101 4.8 12.9 0.00 0.00 0.00 69 1017.1
20260510191008 26 226 4.8 11.3 0.00 0.00 0.00 68 1017.0
20260510190505 26 125 4.8 12.9 0.00 0.00 0.00 70 1017.0
20260510190017 26 158 3.2 12.9 0.00 0.00 0.00 68 1017.0
20260510185507 26 213 6.4 14.5 0.00 0.00 0.00 69 1017.1
20260510185011 26 229 4.8 16.1 0.00 0.00 0.00 68 1017.0
20260510184519 25 155 6.4 16.1 0.00 0.00 0.00 71 1017.0
20260510184007 26 156 4.8 14.5 0.00 0.00 0.00 71 1016.9
20260510183508 25 155 4.8 14.5 0.00 0.00 0.00 70 1017.0
20260510183015 25 205 4.8 12.9 0.00 0.00 0.00 72 1017.0
20260510182505 25 125 6.4 16.1 0.00 0.00 0.00 73 1016.9
20260510182009 25 131 3.2 17.7 0.00 0.00 0.00 72 1017.0
20260510181512 25 134 6.4 17.7 0.00 0.00 0.00 74 1017.1
20260510181007 25 84 4.8 19.3 0.00 0.00 0.00 73 1017.1
20260510180507 25 52 3.2 19.3 0.00 0.00 0.00 73 1017.0
20260510180013 25 71 9.7 19.3 0.00 0.00 0.00 76 1017.1
20260510175506 25 214 1.6 12.9 0.00 0.00 0.00 72 1017.1
20260510175006 25 155 4.8 14.5 0.00 0.00 0.00 72 1017.2
20260510174506 25 154 4.8 14.5 0.00 0.00 0.00 72 1017.2
20260510174014 24 117 4.8 14.5 0.00 0.00 0.00 74 1017.4
20260510173511 24 216 4.8 12.9 0.00 0.00 0.00 76 1017.5
20260510173019 24 229 4.8 12.9 0.00 0.00 0.00 79 1017.5
20260510172510 24 190 4.8 12.9 0.00 0.00 0.00 78 1017.5
20260510172003 23 210 3.2 12.9 0.00 0.00 0.00 77 1017.6
20260510171518 23 184 4.8 12.9 0.00 0.00 0.00 78 1017.6
20260510171006 23 172 3.2 11.3 0.00 0.00 0.00 78 1017.6
20260510170507 23 130 3.2 9.7 0.00 0.00 0.00 79 1017.8
20260510170018 23 157 0.0 12.9 0.00 0.00 0.00 78 1017.9
20260510165508 23 188 1.6 12.9 0.00 0.00 0.00 80 1017.9
20260510165010 23 183 3.2 12.9 0.00 0.00 0.00 82 1018.0
20260510164518 23 194 3.2 8.0 0.00 0.00 0.00 82 1018.0
20260510164007 22 196 3.2 8.0 0.00 0.00 0.00 82 1018.1
20260510163510 22 228 0.0 6.4 0.00 0.00 0.00 82 1018.1
20260510163016 22 227 0.0 6.4 0.00 0.00 0.00 82 1018.2
20260510162514 22 227 1.6 6.4 0.00 0.00 0.00 83 1018.2
20260510162009 22 294 1.6 6.4 0.00 0.00 0.00 83 1018.2
20260510161511 22 214 3.2 6.4 0.00 0.00 0.00 84 1018.1
20260510161008 22 214 1.6 9.7 0.00 0.00 0.00 85 1018.1
20260510160510 22 214 1.6 9.7 0.00 0.00 0.00 85 1018.0
20260510160020 21 207 3.2 8.0 0.00 0.00 0.00 87 1017.9
20260510155511 21 169 0.0 8.0 0.00 0.00 0.00 86 1017.9
20260510155008 21 172 1.6 6.4 0.00 0.00 0.00 87 1017.9
20260510154524 21 157 0.0 6.4 0.00 0.00 0.00 87 1017.9
20260510154008 21 197 0.0 4.8 0.00 0.00 0.00 88 1017.9
20260510153511 21 197 0.0 6.4 0.00 0.00 0.00 88 1017.9
20260510153023 21 197 0.0 6.4 0.00 0.00 0.00 88 1017.8
20260510152517 21 197 1.6 6.4 0.00 0.00 0.00 90 1017.7
20260510152011 21 198 0.0 6.4 0.00 0.00 0.00 90 1017.7
20260510151529 20 198 1.6 6.4 0.00 0.00 0.00 90 1017.8
20260510151004 20 199 0.0 6.4 0.00 0.00 0.00 90 1017.7
20260510150509 20 196 1.6 6.4 0.00 0.00 0.00 91 1017.5
20260510150024 20 186 1.6 4.8 0.00 0.00 0.00 91 1017.5
20260510145506 20 186 1.6 4.8 0.00 0.00 0.00 91 1017.6
20260510145007 20 186 0.0 4.8 0.00 0.00 0.00 91 1017.6
20260510144530 20 186 1.6 4.8 0.00 0.00 0.00 92 1017.7
20260510144008 20 184 1.6 4.8 0.00 0.00 0.00 91 1017.5
20260510143511 20 206 0.0 6.4 0.00 0.00 0.00 92 1017.7
20260510143016 19 206 0.0 6.4 0.00 0.00 0.00 92 1017.7
20260510142512 19 206 3.2 6.4 0.00 0.00 0.00 92 1017.6
20260510142013 19 276 0.0 4.8 0.00 0.00 0.00 92 1017.7
20260510141526 20 276 0.0 6.4 0.00 0.00 0.00 92 1017.8
20260510141010 19 276 1.6 9.7 0.00 0.00 0.00 92 1017.8
20260510140508 19 229 3.2 9.7 0.00 0.00 0.00 92 1017.7
20260510140024 19 206 3.2 8.0 0.00 0.00 0.00 92 1017.6
20260510135508 19 232 3.2 8.0 0.00 0.00 0.00 92 1017.6
20260510135004 19 243 3.2 8.0 0.00 0.00 0.00 92 1017.7
20260510134522 19 234 1.6 8.0 0.00 0.00 0.00 92 1017.6
20260510134008 19 161 3.2 6.4 0.00 0.00 0.00 92 1017.5
20260510133510 19 171 1.6 6.4 0.00 0.00 0.00 92 1017.5
20260510133025 18 281 3.2 6.4 0.00 0.00 0.00 92 1017.5
20260510132509 18 267 1.6 6.4 0.00 0.00 0.00 92 1017.5
20260510132010 18 65 0.0 0.0 0.00 0.00 0.00 92 1017.5
20260510131523 18 304 0.0 1.6 0.00 0.00 0.00 92 1017.5
20260510131012 18 304 0.0 1.6 0.00 0.00 0.00 92 1017.4
20260510130507 18 304 0.0 0.0 0.00 0.00 0.00 92 1017.5
20260510130021 18 304 0.0 0.0 0.00 0.00 0.00 92 1017.4
20260510125508 18 304 0.0 0.0 0.00 0.00 0.00 92 1017.4
20260510125009 18 304 0.0 3.2 0.00 0.00 0.00 92 1017.4
20260510124518 17 304 0.0 3.2 0.00 0.00 0.00 93 1017.3
20260510124007 17 304 0.0 1.6 0.00 0.00 0.00 92 1017.2
20260510123509 17 304 0.0 0.0 0.00 0.00 0.00 93 1017.3
20260510123026 17 304 0.0 0.0 0.00 0.00 0.00 93 1017.3
20260510122511 16 304 0.0 0.0 0.00 0.00 0.00 92 1017.3
20260510122010 16 313 0.0 0.0 0.00 0.00 0.00 92 1017.3
20260510121528 16 313 0.0 0.0 0.00 0.00 0.00 92 1017.3
20260510121010 16 313 0.0 0.0 0.00 0.00 0.00 92 1017.1
20260510120509 16 313 0.0 0.0 0.00 0.00 0.00 92 1017.1
20260510120036 16 313 0.0 0.0 0.00 0.00 0.00 92 1017.0
20260510115511 15 313 0.0 0.0 0.00 0.00 0.00 92 1017.0
20260510115010 15 313 0.0 0.0 0.00 0.00 0.00 92 1016.9
20260510114526 15 313 0.0 0.0 0.00 0.00 0.00 91 1016.9
20260510114009 15 313 0.0 0.0 0.00 0.00 0.00 92 1016.9
20260510113508 15 86 0.0 0.0 0.00 0.00 0.00 91 1016.8
20260510113026 15 86 0.0 0.0 0.00 0.00 0.00 91 1016.7
20260510112513 15 86 0.0 0.0 0.00 0.00 0.00 91 1016.5
20260510112007 15 86 0.0 0.0 0.00 0.00 0.00 91 1016.5
20260510111520 15 86 0.0 0.0 0.00 0.00 0.00 91 1016.5
20260510111012 15 86 0.0 0.0 0.00 0.00 0.00 91 1016.3
20260510110510 15 86 0.0 0.0 0.00 0.00 0.00 91 1016.2
20260510110024 15 86 0.0 0.0 0.00 0.00 0.00 91 1016.1
20260510105509 14 86 0.0 0.0 0.00 0.00 0.00 91 1015.9
20260510105009 14 86 0.0 0.0 0.00 0.00 0.00 91 1015.9
20260510104527 14 86 0.0 0.0 0.00 0.00 0.00 91 1015.8
20260510104008 14 86 0.0 0.0 0.00 0.00 0.00 91 1015.8
20260510103508 14 86 0.0 0.0 0.00 0.00 0.00 91 1015.7
20260510103027 14 86 0.0 0.0 0.00 0.00 0.00 91 1015.4
20260510102508 14 86 0.0 0.0 0.00 0.00 0.00 91 1015.4
20260510102011 13 86 0.0 0.0 0.00 0.00 0.00 91 1015.3
20260510101527 13 86 0.0 0.0 0.00 0.00 0.00 91 1015.2
20260510101006 13 86 0.0 0.0 0.00 0.00 0.00 91 1015.1
20260510100508 13 86 0.0 1.6 0.00 0.00 0.00 90 1015.1
20260510100027 13 86 0.0 1.6 0.00 0.00 0.00 90 1015.1
20260510095509 13 86 0.0 1.6 0.00 0.00 0.00 90 1015.1
20260510095010 13 86 0.0 0.0 0.00 0.00 0.00 90 1014.8
20260510094520 13 86 0.0 0.0 0.00 0.00 0.00 90 1014.5
20260510094008 13 86 0.0 0.0 0.00 0.00 0.00 90 1014.5
20260510093506 13 86 0.0 0.0 0.00 0.00 0.00 90 1014.4
20260510093024 13 86 0.0 0.0 0.00 0.00 0.00 90 1014.3
20260510092506 13 86 0.0 0.0 0.00 0.00 0.00 90 1014.3
20260510092005 13 86 0.0 0.0 0.00 0.00 0.00 90 1014.4
20260510091523 13 86 0.0 0.0 0.00 0.00 0.00 90 1014.4
20260510091004 13 86 0.0 0.0 0.00 0.00 0.00 90 1014.4
20260510090510 13 86 0.0 0.0 0.00 0.00 0.00 90 1014.4
20260510090020 13 86 0.0 0.0 0.00 0.00 0.00 90 1014.4
20260510085506 13 86 0.0 0.0 0.00 0.00 0.00 90 1014.4
20260510085011 13 86 0.0 0.0 0.00 0.00 0.00 89 1014.4
20260510084517 13 86 0.0 0.0 0.00 0.00 0.00 89 1014.4
20260510084002 13 86 0.0 0.0 0.00 0.00 0.00 89 1014.2
20260510083514 13 86 0.0 0.0 0.00 0.00 0.00 89 1014.2
20260510083010 13 86 0.0 0.0 0.00 0.00 0.00 89 1014.1
20260510082509 13 86 0.0 0.0 0.00 0.00 0.00 89 1014.1
20260510082011 13 86 0.0 0.0 0.00 0.00 0.00 89 1014.0
20260510081508 13 86 0.0 0.0 0.00 0.00 0.00 89 1014.0
20260510081007 13 86 0.0 0.0 0.00 0.00 0.00 89 1014.1
20260510080506 13 86 0.0 0.0 0.00 0.00 0.00 89 1014.0
20260510080026 13 86 0.0 0.0 0.00 0.00 0.00 89 1013.9
20260510075511 14 86 0.0 0.0 0.00 0.00 0.00 89 1014.0
20260510075006 14 86 0.0 0.0 0.00 0.00 0.00 89 1014.1
20260510074532 14 86 0.0 0.0 0.00 0.00 0.00 89 1014.0
20260510074010 14 86 0.0 0.0 0.00 0.00 0.00 89 1013.9
20260510073507 14 86 0.0 0.0 0.00 0.00 0.00 89 1013.8
20260510073024 14 86 0.0 0.0 0.00 0.00 0.00 89 1013.8
20260510072506 14 86 0.0 0.0 0.00 0.00 0.00 89 1013.9
20260510072011 14 86 0.0 0.0 0.00 0.00 0.00 89 1013.9
20260510071519 14 86 0.0 0.0 0.00 0.00 0.00 89 1014.0
20260510071007 15 86 0.0 0.0 0.00 0.00 0.00 89 1014.0
20260510070507 15 86 0.0 0.0 0.00 0.00 0.00 89 1014.0
20260510070018 15 86 0.0 0.0 0.00 0.00 0.00 89 1013.9
20260510065510 15 86 0.0 0.0 0.00 0.00 0.00 89 1013.8
20260510065011 15 86 0.0 0.0 0.00 0.00 0.00 88 1013.7
20260510064531 15 86 0.0 0.0 0.00 0.00 0.00 88 1013.7
20260510064012 15 86 0.0 0.0 0.00 0.00 0.00 88 1013.7
20260510063512 15 86 0.0 0.0 0.00 0.00 0.00 88 1013.8
20260510063027 15 86 0.0 0.0 0.00 0.00 0.00 88 1013.8
20260510062511 15 86 0.0 0.0 0.00 0.00 0.00 88 1014.0
20260510062009 15 86 0.0 0.0 0.00 0.00 0.00 88 1013.9
20260510061531 15 86 0.0 0.0 0.00 0.00 0.00 88 1014.0
20260510061013 15 86 0.0 0.0 0.00 0.00 0.00 88 1013.9
20260510060509 15 86 0.0 0.0 0.00 0.00 0.00 88 1013.9
20260510060042 15 86 0.0 0.0 0.00 0.00 0.00 88 1013.9
20260510055507 15 86 0.0 0.0 0.00 0.00 0.00 88 1014.0
20260510055009 16 86 0.0 0.0 0.00 0.00 0.00 88 1014.0
20260510054524 16 86 0.0 0.0 0.00 0.00 0.00 88 1014.1
20260510054008 16 86 0.0 0.0 0.00 0.00 0.00 88 1014.0
20260510053509 16 86 0.0 0.0 0.00 0.00 0.00 88 1013.9
20260510053030 16 86 0.0 0.0 0.00 0.00 0.00 88 1013.9
20260510052510 16 86 0.0 0.0 0.00 0.00 0.00 88 1014.0
20260510052011 16 86 0.0 0.0 0.00 0.00 0.00 88 1014.1
20260510051528 16 86 0.0 0.0 0.00 0.00 0.00 88 1014.0
20260510051013 16 86 0.0 0.0 0.00 0.00 0.00 88 1014.0
20260510050508 16 86 0.0 0.0 0.00 0.00 0.00 88 1014.0
20260510050027 16 86 0.0 0.0 0.00 0.00 0.00 88 1014.0
20260510045512 16 86 0.0 0.0 0.00 0.00 0.00 88 1013.9
20260510045010 16 86 0.0 0.0 0.00 0.00 0.00 88 1014.0
20260510044528 16 86 0.0 0.0 0.00 0.00 0.00 87 1014.0
20260510044009 17 86 0.0 0.0 0.00 0.00 0.00 88 1014.0
20260510043508 17 86 0.0 0.0 0.00 0.00 0.00 88 1014.1
20260510043026 17 86 0.0 0.0 0.00 0.00 0.00 87 1014.0
20260510042507 17 86 0.0 0.0 0.00 0.00 0.00 88 1014.0
20260510042010 17 86 0.0 0.0 0.00 0.00 0.00 87 1014.0
20260510041530 17 86 0.0 0.0 0.00 0.00 0.00 87 1014.1
20260510041010 17 86 0.0 0.0 0.00 0.00 0.00 87 1014.1
20260510040507 17 86 0.0 0.0 0.00 0.00 0.00 87 1014.1
20260510040028 17 86 0.0 0.0 0.00 0.00 0.00 87 1014.2
20260510035507 17 86 0.0 0.0 0.00 0.00 0.00 87 1014.2
20260510035004 17 86 0.0 0.0 0.00 0.00 0.00 87 1014.2
20260510034522 17 86 0.0 0.0 0.00 0.00 0.00 87 1014.2
20260510034008 17 86 0.0 0.0 0.00 0.00 0.00 87 1014.3
20260510033506 17 86 0.0 0.0 0.00 0.00 0.00 87 1014.3
20260510033020 17 86 0.0 0.0 0.00 0.00 0.00 86 1014.4
20260510032506 17 86 0.0 0.0 0.00 0.00 0.00 86 1014.4
20260510032014 17 86 0.0 0.0 0.00 0.00 0.00 86 1014.5
20260510031518 17 86 0.0 0.0 0.00 0.00 0.00 86 1014.4
20260510031005 18 86 0.0 0.0 0.00 0.00 0.00 86 1014.4
20260510030512 18 86 0.0 0.0 0.00 0.00 0.00 86 1014.4
20260510030017 18 86 0.0 0.0 0.00 0.00 0.00 86 1014.3
20260510025504 18 86 0.0 0.0 0.00 0.00 0.00 86 1014.3
20260510025012 18 86 0.0 0.0 0.00 0.00 0.00 86 1014.3
20260510024514 18 86 0.0 0.0 0.00 0.00 0.00 85 1014.2
20260510024007 18 86 0.0 0.0 0.00 0.00 0.00 86 1014.2
20260510023508 18 86 0.0 0.0 0.00 0.00 0.00 85 1014.1
20260510023022 18 86 0.0 0.0 0.00 0.00 0.00 85 1014.0
20260510022511 18 86 0.0 0.0 0.00 0.00 0.00 84 1013.8
20260510022008 18 86 0.0 0.0 0.00 0.00 0.00 84 1013.6
20260510021527 18 86 0.0 0.0 0.00 0.00 0.00 84 1013.6
20260510021009 19 86 0.0 0.0 0.00 0.00 0.00 84 1013.5
20260510020506 19 86 0.0 0.0 0.00 0.00 0.00 84 1013.3
20260510020025 19 86 0.0 0.0 0.00 0.00 0.00 84 1013.2
20260510015507 19 86 0.0 0.0 0.00 0.00 0.00 83 1013.1
20260510015005 20 86 0.0 0.0 0.00 0.00 0.00 83 1013.1
20260510014524 20 86 0.0 4.8 0.00 0.00 0.00 83 1013.0
20260510014006 20 86 0.0 4.8 0.00 0.00 0.00 83 1012.9
20260510013510 20 70 0.0 0.0 0.00 0.00 0.00 82 1012.8
20260510013020 20 70 0.0 0.0 0.00 0.00 0.00 82 1012.8
20260510012506 20 70 0.0 0.0 0.00 0.00 0.00 81 1012.6
20260510012011 20 70 0.0 0.0 0.00 0.00 0.00 81 1012.6
20260510011524 21 70 0.0 0.0 0.00 0.00 0.00 80 1012.5
20260510011017 21 70 0.0 3.2 0.00 0.00 0.00 80 1012.3
20260510010508 21 70 0.0 3.2 0.00 0.00 0.00 79 1012.2
20260510010023 21 70 0.0 1.6 0.00 0.00 0.00 79 1012.1
20260510005510 21 70 0.0 1.6 0.00 0.00 0.00 79 1012.0
20260510005008 22 70 0.0 1.6 0.00 0.00 0.00 79 1011.9
20260510004514 22 234 0.0 0.0 0.00 0.00 0.00 78 1011.8
20260510004009 22 234 0.0 1.6 0.00 0.00 0.00 77 1011.7
20260510003507 22 234 0.0 1.6 0.00 0.00 0.00 77 1011.6
20260510003026 22 234 0.0 1.6 0.00 0.00 0.00 76 1011.5
20260510002510 23 234 0.0 0.0 0.00 0.00 0.00 76 1011.4
20260510002008 23 228 0.0 0.0 0.00 0.00 0.00 75 1011.4
20260510001527 23 223 0.0 1.6 0.00 0.00 0.00 75 1011.4
20260510001006 23 223 0.0 3.2 0.00 0.00 0.00 74 1011.4
20260510000509 23 223 0.0 3.2 0.00 0.00 0.00 74 1011.4
20260510000024 23 223 1.6 3.2 0.00 0.00 0.00 72 1011.4
20260509235510 24 219 0.0 0.0 0.00 0.00 0.00 73 1011.4
20260509235010 24 219 0.0 3.2 0.00 0.00 0.00 71 1011.3
20260509234523 25 219 0.0 4.8 0.00 0.00 0.00 70 1011.3
20260509234006 25 217 0.0 4.8 0.00 0.00 0.00 65 1011.3
20260509233507 26 217 0.0 4.8 0.00 0.00 0.00 67 1011.2
20260509233021 26 217 1.6 6.4 0.00 0.00 0.00 63 1011.3
20260509232510 26 215 3.2 6.4 0.00 0.00 0.00 64 1011.3
20260509232007 26 217 1.6 9.7 0.00 0.00 0.00 64 1011.3
20260509231520 26 270 3.2 6.4 0.00 0.00 0.00 61 1011.3
20260509231010 26 263 1.6 6.4 0.00 0.00 0.00 61 1011.2
20260509230507 26 273 1.6 6.4 0.00 0.00 0.00 60 1011.2
20260509230016 26 273 3.2 6.4 0.00 0.00 0.00 61 1011.2
20260509225514 26 218 0.0 6.4 0.00 0.00 0.00 62 1011.2
20260509225011 26 218 1.6 11.3 0.00 0.00 0.00 60 1011.3
20260509224526 26 283 1.6 11.3 0.00 0.00 0.00 62 1011.3
20260509224010 26 293 1.6 6.4 0.00 0.00 0.00 63 1011.3
20260509223511 26 265 3.2 6.4 0.00 0.00 0.00 64 1011.2
20260509223028 26 235 1.6 8.0 0.00 0.00 0.00 64 1011.1
20260509222508 26 227 0.0 8.0 0.00 0.00 0.00 65 1011.1
20260509222009 26 208 3.2 8.0 0.00 0.00 0.00 65 1011.0
20260509221532 26 274 3.2 8.0 0.00 0.00 0.00 66 1011.0
20260509221008 26 277 0.0 6.4 0.00 0.00 0.00 66 1011.0
20260509220509 25 277 3.2 9.7 0.00 0.00 0.00 68 1010.9
20260509220024 25 277 3.2 9.7 0.00 0.00 0.00 65 1011.0
20260509215508 25 275 3.2 6.4 0.00 0.00 0.00 67 1011.1
20260509215009 25 194 3.2 6.4 0.00 0.00 0.00 68 1011.1
20260509214523 25 282 1.6 4.8 0.00 0.00 0.00 67 1011.1
20260509214009 25 282 1.6 4.8 0.00 0.00 0.00 66 1011.1
20260509213508 25 282 1.6 9.7 0.00 0.00 0.00 66 1011.1
20260509213024 25 282 3.2 9.7 0.00 0.00 0.00 66 1011.2
20260509212512 25 279 4.8 6.4 0.00 0.00 0.00 67 1011.2
20260509212013 25 279 1.6 6.4 0.00 0.00 0.00 66 1011.3
20260509211549 25 279 3.2 11.3 0.00 0.00 0.00 66 1011.3
20260509211010 25 279 1.6 11.3 0.00 0.00 0.00 66 1011.2
20260509210508 25 279 8.0 11.3 0.00 0.00 0.00 66 1011.3
20260509210026 25 248 1.6 9.7 0.00 0.00 0.00 70 1011.3
20260509205510 25 210 1.6 6.4 0.00 0.00 0.00 66 1011.3
20260509205012 25 259 1.6 6.4 0.00 0.00 0.00 68 1011.4
20260509204525 25 234 1.6 6.4 0.00 0.00 0.00 67 1011.3
20260509204010 25 216 1.6 6.4 0.00 0.00 0.00 66 1011.3
20260509203510 25 217 3.2 8.0 0.00 0.00 0.00 66 1011.5
20260509203038 25 217 1.6 9.7 0.00 0.00 0.00 67 1011.5
20260509202510 25 217 1.6 9.7 0.00 0.00 0.00 67 1011.6
20260509202012 25 253 1.6 6.4 0.00 0.00 0.00 68 1011.6
20260509201524 25 253 0.0 6.4 0.00 0.00 0.00 68 1011.5
20260509201007 25 309 1.6 9.7 0.00 0.00 0.00 66 1011.6
20260509200509 25 268 3.2 9.7 0.00 0.00 0.00 65 1011.7
20260509200026 25 275 0.0 9.7 0.00 0.00 0.00 66 1011.6
20260509195511 25 151 3.2 9.7 0.00 0.00 0.00 66 1011.6
20260509195007 25 155 3.2 8.0 0.00 0.00 0.00 68 1011.7
20260509194523 25 199 1.6 11.3 0.00 0.00 0.00 68 1011.7
20260509194009 25 200 3.2 12.9 0.00 0.00 0.00 67 1011.7
20260509193509 25 198 4.8 12.9 0.00 0.00 0.00 69 1011.8